| time (UTC) | temp F | wind direction | speed knots | gust knots | rain 1hr in | rain 24hr in | rain mn in | humidity % | barometer mb |
| 20260906114410 | 70 | 270 | 0.0 | 0.0 | 0.00 | 0.06 | 0.00 | 99 | 990.0 |
| 20260906113409 | 70 | 22 | 0.0 | 0.0 | 0.00 | 0.06 | 0.00 | 99 | 990.1 |
| 20260906112410 | 70 | 22 | 0.0 | 0.0 | 0.00 | 0.06 | 0.00 | 99 | 990.2 |
| 20260906111409 | 70 | 22 | 0.0 | 0.0 | 0.00 | 0.06 | 0.00 | 99 | 990.1 |
| 20260906110410 | 70 | 337 | 0.0 | 0.0 | 0.00 | 0.06 | 0.00 | 99 | 989.9 |
| 20260906105410 | 69 | 337 | 0.0 | 0.0 | 0.00 | 0.06 | 0.00 | 99 | 989.8 |
| 20260906104409 | 69 | 22 | 0.0 | 0.0 | 0.00 | 0.06 | 0.00 | 99 | 989.6 |
| 20260906103410 | 69 | 0 | 0.0 | 0.0 | 0.00 | 0.06 | 0.00 | 99 | 989.6 |
| 20260906102409 | 69 | 22 | 0.0 | 0.0 | 0.00 | 0.06 | 0.00 | 99 | 989.4 |
| 20260906101409 | 68 | 22 | 0.0 | 0.0 | 0.00 | 0.06 | 0.00 | 99 | 989.4 |
| 20260906100410 | 68 | 157 | 0.0 | 0.0 | 0.00 | 0.06 | 0.00 | 99 | 989.2 |
| 20260906095409 | 68 | 67 | 0.0 | 0.0 | 0.00 | 0.06 | 0.00 | 99 | 989.0 |
| 20260906094410 | 68 | 45 | 0.0 | 0.0 | 0.00 | 0.06 | 0.00 | 99 | 988.9 |
| 20260906093409 | 68 | 22 | 0.0 | 0.0 | 0.00 | 0.06 | 0.00 | 99 | 988.8 |
| 20260906092409 | 68 | 45 | 0.0 | 0.0 | 0.00 | 0.06 | 0.00 | 99 | 988.7 |
| 20260906091409 | 68 | 22 | 0.0 | 0.0 | 0.00 | 0.06 | 0.00 | 99 | 988.6 |
| 20260906090409 | 68 | 22 | 0.0 | 0.0 | 0.00 | 0.06 | 0.00 | 99 | 988.5 |
| 20260906085408 | 68 | 337 | 0.0 | 0.0 | 0.00 | 0.06 | 0.00 | 99 | 988.5 |
| 20260906084409 | 68 | 90 | 0.0 | 0.0 | 0.00 | 0.06 | 0.00 | 99 | 988.4 |
| 20260906083408 | 68 | 247 | 0.0 | 0.0 | 0.00 | 0.06 | 0.00 | 99 | 988.4 |
| 20260906082408 | 68 | 0 | 0.0 | 0.0 | 0.00 | 0.06 | 0.00 | 99 | 988.3 |
| 20260906081408 | 68 | 202 | 0.0 | 0.0 | 0.00 | 0.06 | 0.00 | 99 | 988.2 |
| 20260906080410 | 69 | 157 | 0.0 | 0.0 | 0.00 | 0.06 | 0.00 | 99 | 988.2 |
| 20260906075408 | 69 | 292 | 0.0 | 0.0 | 0.00 | 0.06 | 0.00 | 99 | 988.0 |
| 20260906074408 | 69 | 337 | 0.0 | 0.0 | 0.00 | 0.06 | 0.00 | 99 | 988.1 |
| 20260906073408 | 69 | 157 | 0.0 | 0.0 | 0.00 | 0.06 | 0.00 | 99 | 988.1 |
| 20260906072408 | 69 | 157 | 0.0 | 0.0 | 0.00 | 0.06 | 0.00 | 99 | 988.1 |
| 20260906071408 | 69 | 157 | 0.0 | 0.0 | 0.00 | 0.06 | 0.00 | 99 | 988.1 |
| 20260906070408 | 69 | 157 | 0.0 | 0.0 | 0.00 | 0.06 | 0.00 | 99 | 988.2 |
| 20260906065408 | 70 | 202 | 0.0 | 0.0 | 0.00 | 0.06 | 0.00 | 99 | 988.3 |
| 20260906064408 | 70 | 22 | 0.0 | 0.0 | 0.00 | 0.06 | 0.00 | 99 | 988.2 |
| 20260906063409 | 70 | 337 | 0.0 | 0.0 | 0.00 | 0.06 | 0.00 | 99 | 988.2 |
| 20260906062407 | 70 | 337 | 0.0 | 0.0 | 0.00 | 0.06 | 0.00 | 99 | 988.5 |
| 20260906061408 | 69 | 0 | 0.0 | 0.0 | 0.00 | 0.06 | 0.00 | 99 | 988.4 |
| 20260906060409 | 69 | 337 | 0.0 | 0.0 | 0.00 | 0.06 | 0.00 | 99 | 988.4 |
| 20260906055409 | 70 | 337 | 0.0 | 0.0 | 0.00 | 0.06 | 0.00 | 99 | 988.5 |
| 20260906054407 | 70 | 315 | 0.0 | 0.0 | 0.00 | 0.06 | 0.00 | 99 | 988.6 |
| 20260906053407 | 70 | 292 | 0.0 | 0.0 | 0.00 | 0.06 | 0.00 | 99 | 988.8 |
| 20260906052408 | 70 | 180 | 0.0 | 0.0 | 0.00 | 0.06 | 0.00 | 99 | 988.9 |
| 20260906051407 | 70 | 315 | 0.0 | 0.0 | 0.00 | 0.06 | 0.00 | 99 | 989.0 |
| 20260906050407 | 70 | 22 | 0.0 | 0.0 | 0.00 | 0.06 | 0.00 | 99 | 989.4 |
| 20260906045407 | 70 | 135 | 0.0 | 0.0 | 0.00 | 0.06 | 0.00 | 99 | 989.4 |
| 20260906044407 | 70 | 202 | 0.0 | 0.0 | 0.00 | 0.06 | 0.00 | 99 | 989.6 |
| 20260906043408 | 70 | 0 | 0.0 | 0.0 | 0.00 | 0.06 | 0.00 | 99 | 989.4 |
| 20260906042407 | 70 | 135 | 0.0 | 0.0 | 0.00 | 0.06 | 0.00 | 99 | 989.6 |
| 20260906041408 | 70 | 270 | 0.0 | 0.0 | 0.00 | 0.06 | 0.00 | 99 | 989.6 |
| 20260906040407 | 70 | 315 | 0.0 | 0.0 | 0.00 | 0.06 | 0.00 | 99 | 989.5 |
| 20260906035407 | 70 | 292 | 0.0 | 0.0 | 0.00 | 0.06 | 0.06 | 99 | 989.6 |
| 20260906034407 | 70 | 315 | 0.0 | 0.0 | 0.00 | 0.06 | 0.06 | 99 | 989.7 |
| 20260906033408 | 70 | 225 | 0.0 | 0.0 | 0.00 | 0.06 | 0.06 | 99 | 989.9 |
| 20260906032408 | 70 | 112 | 0.0 | 0.0 | 0.00 | 0.06 | 0.06 | 99 | 989.9 |
| 20260906031408 | 70 | 337 | 0.0 | 0.0 | 0.00 | 0.06 | 0.06 | 99 | 989.7 |
| 20260906030407 | 70 | 67 | 0.0 | 0.0 | 0.00 | 0.06 | 0.06 | 99 | 989.7 |
| 20260906025407 | 70 | 0 | 0.0 | 0.0 | 0.00 | 0.06 | 0.06 | 99 | 989.7 |
| 20260906024407 | 70 | 0 | 0.0 | 0.0 | 0.00 | 0.06 | 0.06 | 99 | 989.6 |
| 20260906023522 | 70 | 22 | 0.0 | 0.0 | 0.00 | 0.06 | 0.06 | 99 | 989.6 |